QPF
0.00 0.00 0.00 0.00 0.00 0.00 0.00 0.00 0.00 0.00 0.00 0.00 0.01 0.00 0.01 0.02 0.04 0.03 0.03 0.10 0.06 0.01 0.00 0.00 0.00 0.00 0.00 0.01 0.01 0.01 0.00 0.02 0.04 0.04 0.00 0.00 0.00 0.00 0.00 0.00 0.00 0.00 0.00 0.00 0.00 0.00 0.00 0.00 0.00 0.00 0.00 0.00 0.00 0.00
0.00 0.00 0.00 0.00 0.00 0.00 0.00 0.00 0.01 0.01 0.01 0.00 0.00 0.00 0.00 0.00 0.00 0.01 0.01 0.07 0.10 0.04 0.00 0.00 0.00 0.00 0.00 0.00 0.01 0.01 0.00 0.00 0.02 0.06 0.03 0.02 0.01 0.01 0.00 0.00 0.00 0.00 0.00 0.00 0.00 0.00 0.01 0.00 0.00 0.00 0.00 0.00 0.00 0.00
0.00 0.00 0.00 0.00 0.00 0.00 0.00 0.01 0.01 0.01 0.00 0.00 0.00 0.00 0.00 0.00 0.01 0.01 0.02 0.05 0.07 0.03 0.00 0.00 0.00 0.00 0.00 0.02 0.01 0.00 0.00 0.00 0.03 0.04 0.02 0.02 0.05 0.06 0.03 0.02 0.02 0.00 0.00 0.00 0.00 0.00 0.00 0.00 0.00 0.00 0.00 0.00 0.00 0.00
0.00 0.00 0.00 0.00 0.00 0.00 0.00 0.00 0.00 0.00 0.00 0.00 0.00 0.00 0.00 0.00 0.00 0.00 0.01 0.04 0.05 0.02 0.01 0.00 0.00 0.00 0.00 0.00 0.00 0.00 0.00 0.00 0.04 0.02 0.01 0.02 0.04 0.05 0.02 0.02 0.01 0.02 0.02 0.01 0.00 0.02 0.02 0.01 0.04 0.02 0.01 0.00 0.00 0.00
0.00 0.00 0.00 0.00 0.00 0.00 0.00 0.00 0.00 0.00 0.00 0.00 0.00 0.00 0.00 0.00 0.00 0.00 0.00 0.03 0.06 0.02 0.01 0.00 0.00 0.00 0.00 0.00 0.00 0.00 0.00 0.00 0.00 0.00 0.02 0.02 0.03 0.02 0.02 0.01 0.00 0.00 0.01 0.02 0.07 0.08 0.05 0.03 0.03 0.03 0.01 0.01 0.00 0.00
0.00 0.00 0.00 0.00 0.00 0.00 0.00 0.00 0.00 0.00 0.00 0.00 0.00 0.00 0.00 0.00 0.00 0.00 0.02 0.03 0.07 0.07 0.03 0.01 0.00 0.00 0.00 0.00 0.00 0.00 0.00 0.00 0.00 0.01 0.01 0.01 0.01 0.02 0.02 0.01 0.00 0.01 0.02 0.01 0.08 0.11 0.05 0.02 0.00 0.00 0.00 0.00 0.00 0.00
0.00 0.00 0.00 0.00 0.00 0.00 0.00 0.00 0.00 0.00 0.00 0.00 0.00 0.00 0.00 0.00 0.00 0.01 0.01 0.01 0.00 0.01 0.03 0.01 0.00 0.01 0.01 0.00 0.00 0.00 0.00 0.00 0.01 0.01 0.00 0.00 0.01 0.03 0.04 0.01 0.02 0.01 0.03 0.01 0.01 0.03 0.01 0.00 0.00 0.00 0.00 0.00 0.00 0.00
0.00 0.00 0.00 0.00 0.00 0.00 0.00 0.00 0.00 0.00 0.00 0.00 0.00 0.00 0.00 0.00 0.00 0.00 0.00 0.00 0.00 0.01 0.01 0.00 0.00 0.01 0.02 0.01 0.01 0.00 0.00 0.00 0.02 0.01 0.00 0.01 0.02 0.01 0.02 0.01 0.02 0.01 0.03 0.01 0.01 0.00 0.00 0.00 0.00 0.00 0.00 0.00 0.00 0.00
0.00 0.00 0.00 0.00 0.00 0.00 0.00 0.00 0.00 0.00 0.00 0.00 0.00 0.00 0.00 0.00 0.00 0.02 0.00 0.00 0.00 0.00 0.01 0.01 0.00 0.00 0.01 0.01 0.02 0.01 0.00 0.00 0.01 0.01 0.01 0.02 0.01 0.01 0.00 0.00 0.00 0.00 0.00 0.00 0.01 0.01 0.00 0.00 0.00 0.00 0.00 0.00 0.00 0.00
0.00 0.00 0.00 0.00 0.00 0.00 0.00 0.00 0.00 0.00 0.00 0.00 0.00 0.00 0.02 0.01 0.00 0.00 0.01 0.01 0.00 0.00 0.00 0.00 0.00 0.01 0.02 0.00 0.01 0.01 0.00 0.01 0.01 0.01 0.03 0.01 0.01 0.01 0.00 0.00 0.00 0.00 0.00 0.00 0.00 0.01 0.00 0.00 0.00 0.00 0.00 0.00 0.00 0.00
0.00 0.00 0.00 0.00 0.00 0.00 0.00 0.00 0.00 0.00 0.00 0.00 0.00 0.00 0.00 0.00 0.01 0.01 0.01 0.01 0.01 0.00 0.01 0.00 0.03 0.04 0.02 0.01 0.02 0.04 0.04 0.05 0.01 0.00 0.02 0.01 0.01 0.01 0.00 0.01 0.01 0.00 0.00 0.00 0.00 0.00 0.00 0.00 0.00 0.00 0.00 0.00 0.00 0.00
0.00 0.00 0.00 0.00 0.00 0.00 0.00 0.00 0.00 0.00 0.00 0.00 0.00 0.00 0.00 0.02 0.02 0.01 0.00 0.00 0.00 0.00 0.01 0.04 0.07 0.05 0.03 0.02 0.02 0.02 0.04 0.02 0.00 0.01 0.01 0.00 0.02 0.02 0.01 0.00 0.00 0.00 0.00 0.00 0.00 0.00 0.00 0.00 0.00 0.00 0.00 0.00 0.00 0.00
0.00 0.00 0.00 0.00 0.00 0.00 0.00 0.00 0.00 0.00 0.00 0.00 0.00 0.01 0.01 0.01 0.01 0.01 0.00 0.00 0.01 0.02 0.04 0.04 0.03 0.00 0.02 0.02 0.01 0.02 0.01 0.02 0.01 0.00 0.00 0.01 0.02 0.01 0.01 0.01 0.00 0.00 0.00 0.00 0.00 0.00 0.00 0.00 0.00 0.00 0.00 0.00 0.00 0.00
0.00 0.00 0.00 0.00 0.00 0.00 0.00 0.00 0.00 0.00 0.00 0.00 0.00 0.00 0.01 0.01 0.01 0.02 0.02 0.02 0.03 0.02 0.02 0.03 0.02 0.00 0.00 0.01 0.02 0.01 0.02 0.02 0.01 0.00 0.00 0.00 0.00 0.01 0.01 0.04 0.03 0.01 0.00 0.00 0.00 0.00 0.00 0.00 0.00 0.00 0.00 0.00 0.00 0.00
0.00 0.00 0.00 0.00 0.00 0.00 0.00 0.00 0.00 0.00 0.00 0.01 0.01 0.01 0.04 0.02 0.01 0.01 0.01 0.02 0.02 0.00 0.00 0.01 0.01 0.01 0.01 0.02 0.02 0.02 0.00 0.00 0.00 0.01 0.01 0.01 0.01 0.05 0.08 0.06 0.04 0.02 0.01 0.01 0.01 0.01 0.01 0.00 0.00 0.00 0.00 0.00 0.00 0.00
0.00 0.00 0.00 0.00 0.00 0.00 0.00 0.00 0.00 0.00 0.02 0.03 0.01 0.01 0.00 0.01 0.00 0.00 0.00 0.00 0.00 0.00 0.00 0.00 0.00 0.01 0.01 0.01 0.00 0.00 0.00 0.00 0.00 0.01 0.01 0.01 0.02 0.03 0.06 0.07 0.06 0.03 0.00 0.00 0.01 0.01 0.00 0.00 0.00 0.00 0.00 0.00 0.00 0.00
0.00 0.00 0.00 0.00 0.00 0.00 0.00 0.00 0.00 0.00 0.00 0.00 0.00 0.00 0.01 0.02 0.01 0.00 0.00 0.00 0.00 0.00 0.00 0.00 0.01 0.02 0.01 0.00 0.00 0.00 0.00 0.00 0.00 0.02 0.02 0.01 0.01 0.03 0.04 0.04 0.03 0.03 0.03 0.00 0.00 0.00 0.01 0.00 0.00 0.00 0.00 0.00 0.00 0.00
0.00 0.00 0.00 0.00 0.00 0.00 0.00 0.00 0.00 0.00 0.00 0.00 0.00 0.00 0.00 0.02 0.03 0.01 0.00 0.00 0.00 0.00 0.00 0.00 0.00 0.01 0.01 0.01 0.02 0.03 0.03 0.03 0.04 0.05 0.05 0.04 0.05 0.07 0.06 0.05 0.05 0.04 0.01 0.00 0.00 0.00 0.00 0.00 0.00 0.00 0.00 0.00 0.00 0.00
0.00 0.00 0.00 0.00 0.00 0.00 0.00 0.00 0.00 0.00 0.00 0.00 0.00 0.00 0.00 0.02 0.03 0.03 0.00 0.00 0.00 0.00 0.00 0.00 0.01 0.05 0.08 0.11 0.10 0.09 0.08 0.11 0.11 0.12 0.11 0.10 0.08 0.10 0.07 0.05 0.03 0.01 0.00 0.00 0.00 0.00 0.00 0.00 0.00 0.00 0.00 0.00 0.00 0.00
0.00 0.00 0.00 0.00 0.00 0.00 0.00 0.00 0.00 0.00 0.00 0.00 0.02 0.01 0.01 0.01 0.02 0.00 0.00 0.00 0.00 0.00 0.01 0.04 0.07 0.08 0.06 0.08 0.11 0.10 0.09 0.09 0.06 0.03 0.02 0.01 0.01 0.01 0.00 0.00 0.00 0.00 0.00 0.00 0.00 0.00 0.00 0.00 0.00 0.00 0.00 0.00 0.00 0.00
0.00 0.00 0.00 0.00 0.00 0.00 0.00 0.00 0.00 0.00 0.00 0.02 0.02 0.00 0.02 0.00 0.00 0.00 0.00 0.00 0.00 0.00 0.03 0.06 0.03 0.01 0.01 0.02 0.02 0.03 0.04 0.05 0.02 0.03 0.02 0.00 0.00 0.00 0.00 0.00 0.00 0.00 0.00 0.00 0.00 0.00 0.00 0.00 0.00 0.00 0.00 0.00 0.00 0.00
0.00 0.00 0.00 0.00 0.00 0.00 0.00 0.00 0.00 0.00 0.00 0.01 0.01 0.00 0.04 0.02 0.00 0.00 0.00 0.00 0.01 0.03 0.03 0.03 0.02 0.00 0.00 0.00 0.00 0.00 0.01 0.02 0.02 0.00 0.00 0.00 0.00 0.00 0.00 0.00 0.00 0.00 0.00 0.00 0.00 0.00 0.00 0.00 0.00 0.00 0.00 0.00 0.00 0.00
0.00 0.00 0.00 0.00 0.00 0.00 0.00 0.00 0.00 0.00 0.00 0.00 0.00 0.02 0.05 0.03 0.02 0.00 0.01 0.02 0.01 0.01 0.02 0.01 0.01 0.00 0.00 0.00 0.00 0.00 0.00 0.00 0.00 0.00 0.00 0.00 0.00 0.00 0.00 0.00 0.00 0.00 0.00 0.00 0.00 0.00 0.00 0.00 0.00 0.00 0.00 0.00 0.00 0.00
0.00 0.00 0.00 0.00 0.00 0.00 0.00 0.00 0.00 0.00 0.00 0.00 0.05 0.08 0.10 0.05 0.02 0.00 0.01 0.01 0.00 0.00 0.00 0.00 0.00 0.00 0.00 0.00 0.00 0.00 0.00 0.00 0.00 0.00 0.00 0.00 0.00 0.00 0.00 0.00 0.00 0.00 0.00 0.00 0.00 0.00 0.00 0.00 0.00 0.00 0.00 0.00 0.00 0.00
0.00 0.00 0.00 0.00 0.00 0.01 0.00 0.00 0.00 0.00 0.00 0.00 0.01 0.06 0.06 0.06 0.03 0.01 0.00 0.00 0.00 0.00 0.00 0.00 0.00 0.00 0.00 0.00 0.00 0.00 0.00 0.00 0.00 0.00 0.00 0.00 0.00 0.00 0.00 0.00 0.00 0.00 0.00 0.00 0.00 0.00 0.00 0.00 0.00 0.00 0.00 0.00 0.00 0.00
0.03 0.03 0.03 0.03 0.02 0.03 0.03 0.03 0.01 0.00 0.00 0.01 0.02 0.05 0.04 0.01 0.01 0.01 0.00 0.00 0.00 0.00 0.00 0.00 0.00 0.00 0.00 0.00 0.00 0.00 0.00 0.00 0.00 0.00 0.00 0.00 0.00 0.00 0.00 0.00 0.00 0.00 0.00 0.00 0.00 0.00 0.00 0.00 0.00 0.00 0.00 0.00 0.00 0.00
0.10 0.06 0.02 0.03 0.09 0.03 0.02 0.01 0.00 0.00 0.00 0.02 0.02 0.03 0.05 0.02 0.00 0.00 0.00 0.00 0.00 0.00 0.00 0.00 0.00 0.00 0.00 0.00 0.00 0.00 0.00 0.00 0.00 0.00 0.00 0.00 0.00 0.00 0.00 0.00 0.00 0.00 0.00 0.00 0.00 0.00 0.00 0.00 0.00 0.00 0.00 0.00 0.00 0.00
0.04 0.05 0.03 0.01 0.04 0.00 0.00 0.00 0.00 0.00 0.00 0.00 0.01 0.00 0.00 0.00 0.00 0.00 0.00 0.00 0.00 0.00 0.00 0.00 0.00 0.00 0.00 0.00 0.00 0.00 0.00 0.00 0.00 0.00 0.00 0.00 0.00 0.00 0.00 0.00 0.00 0.00 0.00 0.00 0.00 0.00 0.00 0.00 0.00 0.00 0.00 0.00 0.00 0.00
0.03 0.01 0.01 0.01 0.00 0.00 0.00 0.00 0.00 0.00 0.00 0.00 0.00 0.00 0.00 0.00 0.00 0.00 0.00 0.00 0.00 0.00 0.00 0.00 0.00 0.00 0.00 0.00 0.00 0.00 0.00 0.00 0.00 0.00 0.00 0.00 0.00 0.00 0.00 0.00 0.00 0.00 0.00 0.00 0.00 0.00 0.00 0.00 0.00 0.00 0.00 0.00 0.00 0.00
0.00 0.00 0.00 0.00 0.00 0.00 0.00 0.00 0.00 0.00 0.00 0.00 0.00 0.00 0.00 0.00 0.00 0.00 0.00 0.00 0.00 0.00 0.00 0.00 0.00 0.00 0.00 0.00 0.00 0.00 0.00 0.00 0.00 0.00 0.00 0.00 0.00 0.00 0.00 0.00 0.00 0.00 0.00 0.00 0.00 0.00 0.00 0.00 0.00 0.00 0.00 0.00 0.00 0.00
0.00 0.00 0.00 0.00 0.00 0.00 0.00 0.00 0.00 0.00 0.00 0.00 0.00 0.00 0.00 0.00 0.00 0.00 0.00 0.00 0.00 0.00 0.00 0.00 0.00 0.00 0.00 0.00 0.00 0.00 0.00 0.00 0.00 0.00 0.00 0.00 0.00 0.00 0.00 0.00 0.00 0.00 0.00 0.00 0.00 0.00 0.00 0.00 0.00 0.00 0.00 0.00 0.00 0.00
0.00 0.00 0.00 0.00 0.00 0.00 0.00 0.00 0.00 0.00 0.00 0.00 0.00 0.00 0.01 0.03 0.03 0.00 0.00 0.00 0.00 0.00 0.00 0.00 0.00 0.00 0.00 0.00 0.00 0.00 0.00 0.00 0.00 0.00 0.00 0.00 0.00 0.00 0.00 0.00 0.00 0.00 0.00 0.00 0.00 0.00 0.00 0.00 0.00 0.00 0.00 0.00 0.00 0.00
0.00 0.00 0.00 0.00 0.00 0.00 0.00 0.00 0.02 0.00 0.00 0.00 0.00 0.01 0.01 0.01 0.00 0.00 0.00 0.00 0.00 0.00 0.00 0.00 0.00 0.00 0.00 0.00 0.00 0.00 0.00 0.00 0.00 0.00 0.00 0.00 0.00 0.00 0.00 0.00 0.00 0.00 0.00 0.00 0.00 0.00 0.00 0.00 0.00 0.00 0.00 0.00 0.00 0.00
MSLP
1022.25 1021.62 1021.03 1020.45 1019.82 1019.24 1018.63 1017.90 1017.17 1016.61 1016.10 1015.61 1015.12 1014.71 1014.35 1014.00 1013.83 1013.80 1013.26 1013.21 1013.69 1013.30 1011.67 1011.28 1010.08 1009.47 1008.88 1008.38 1008.20 1007.99 1008.01 1007.56 1006.67 1005.22 1003.60 1003.28 1002.46 1001.58 1000.48 998.43 997.96 997.29 996.85 993.95 991.94 990.73 990.66 989.55 989.10 989.25 990.65 990.50 990.48 990.61
1022.05 1021.46 1020.91 1020.30 1019.72 1019.12 1018.43 1017.73 1016.97 1016.30 1015.79 1015.33 1014.95 1014.51 1014.17 1013.92 1013.71 1013.61 1013.22 1012.61 1012.79 1012.69 1010.95 1010.20 1009.35 1008.80 1008.43 1007.55 1007.37 1007.83 1007.99 1008.47 1008.46 1006.47 1004.02 1003.21 1002.36 1001.87 1001.15 999.70 998.65 998.86 997.74 996.13 994.65 992.51 991.51 990.48 990.85 991.02 991.35 991.95 992.29 992.22
1021.99 1021.44 1020.82 1020.15 1019.55 1018.92 1018.21 1017.59 1016.97 1016.33 1015.76 1015.26 1014.83 1014.41 1014.04 1013.72 1013.45 1013.33 1013.03 1012.70 1012.58 1011.95 1010.12 1008.50 1007.17 1006.01 1005.81 1006.13 1006.36 1006.82 1006.56 1007.05 1007.32 1006.68 1005.90 1004.56 1003.38 1002.27 1001.44 1000.99 999.83 998.23 997.39 996.48 995.46 992.59 992.69 993.13 991.99 991.99 991.47 992.47 993.75 993.26
1021.85 1021.20 1020.52 1019.94 1019.36 1018.72 1018.06 1017.45 1016.88 1016.30 1015.75 1015.24 1014.68 1014.15 1013.76 1013.42 1013.13 1012.89 1012.63 1012.24 1012.44 1011.97 1010.50 1007.28 1005.78 1004.88 1004.46 1004.10 1004.49 1004.86 1005.08 1005.55 1006.37 1006.47 1005.94 1005.03 1004.28 1003.00 1002.22 1001.67 1000.73 999.77 998.74 998.10 996.67 995.13 994.54 995.00 994.24 993.13 993.02 993.41 994.48 993.88
1021.74 1021.03 1020.31 1019.71 1019.17 1018.52 1017.88 1017.26 1016.66 1016.12 1015.53 1014.91 1014.25 1013.68 1013.31 1013.10 1012.87 1012.45 1011.73 1011.17 1011.37 1011.94 1010.46 1007.82 1005.69 1003.02 1002.67 1002.63 1002.35 1002.58 1003.97 1004.59 1005.00 1005.57 1005.00 1004.61 1004.08 1003.53 1002.33 1001.75 1000.79 1000.17 999.54 999.15 998.21 998.13 996.62 995.85 994.65 993.70 994.43 994.66 994.62 994.51
1021.51 1020.79 1020.13 1019.55 1018.95 1018.24 1017.56 1016.97 1016.46 1015.75 1014.98 1014.35 1013.67 1013.09 1012.92 1012.75 1012.55 1012.04 1011.09 1010.80 1010.72 1011.12 1010.79 1008.29 1004.65 1002.86 1001.74 1001.18 1000.94 1001.70 1002.79 1003.58 1003.93 1004.36 1004.65 1004.64 1004.49 1004.19 1002.89 1001.57 1000.30 1000.16 999.84 999.12 998.74 998.07 997.06 995.83 995.11 995.01 994.79 995.51 995.75 995.87
1021.27 1020.50 1019.84 1019.25 1018.63 1017.83 1017.14 1016.59 1015.86 1014.94 1014.14 1013.59 1013.04 1012.55 1012.33 1012.15 1012.29 1011.91 1011.16 1010.71 1010.52 1010.93 1010.43 1008.39 1006.00 1003.91 1002.76 1001.54 1001.22 1001.67 1002.33 1002.89 1003.46 1004.11 1004.58 1004.69 1004.37 1003.78 1002.24 1001.19 1000.31 999.88 999.74 999.27 998.83 997.84 998.30 998.56 998.19 997.73 997.48 997.34 996.88 996.90
1021.00 1020.17 1019.48 1018.90 1018.16 1017.26 1016.50 1015.89 1014.99 1014.16 1013.34 1012.74 1012.38 1011.74 1011.43 1011.40 1011.37 1010.98 1009.69 1009.42 1010.06 1010.55 1010.35 1009.10 1006.61 1004.81 1004.05 1002.69 1001.75 1001.67 1002.09 1002.82 1003.73 1004.62 1004.88 1004.93 1004.47 1003.85 1002.83 1001.85 1001.10 1000.63 999.61 999.21 999.66 999.58 999.69 999.72 998.69 999.23 999.04 998.81 998.19 998.12
1020.71 1019.85 1019.08 1018.41 1017.64 1016.77 1015.83 1015.17 1014.31 1013.50 1012.49 1011.79 1011.28 1010.69 1010.88 1010.73 1009.89 1009.27 1009.37 1009.54 1009.61 1010.34 1009.84 1008.95 1007.29 1006.05 1005.22 1004.28 1003.56 1003.73 1003.22 1003.91 1004.67 1004.89 1004.96 1005.08 1004.00 1003.49 1002.85 1002.01 1000.97 1000.19 1000.05 999.90 1000.50 1000.96 1000.90 1001.28 1000.57 1000.88 1000.27 1000.07 999.51 999.61
1020.48 1019.65 1018.66 1017.92 1017.08 1016.25 1015.45 1014.54 1013.73 1013.11 1011.86 1010.58 1010.33 1009.87 1009.62 1009.16 1008.94 1009.41 1009.82 1009.74 1009.76 1009.87 1009.82 1008.36 1006.67 1005.80 1005.05 1004.36 1004.10 1003.73 1003.61 1004.06 1004.15 1004.46 1004.02 1004.28 1004.14 1003.65 1002.58 1002.07 1001.74 1001.38 1000.92 1001.10 1001.04 1000.80 1001.07 1000.55 1001.50 1001.51 1001.57 1001.41 1000.03 1000.37
1020.13 1019.37 1018.56 1017.59 1016.76 1015.78 1014.73 1014.17 1013.47 1012.79 1011.18 1010.40 1010.22 1009.79 1009.10 1008.64 1008.82 1009.19 1009.21 1009.37 1009.06 1008.97 1008.24 1006.40 1005.12 1004.76 1004.29 1004.14 1003.66 1002.93 1002.87 1003.20 1003.42 1003.66 1003.77 1004.27 1004.51 1004.03 1003.20 1002.73 1002.48 1002.10 1001.83 1001.55 1001.41 1001.39 1001.57 1001.55 1001.49 1001.57 1001.52 1001.23 1000.88 1000.67
1019.69 1018.94 1018.09 1017.23 1016.31 1015.51 1014.49 1013.83 1013.33 1012.76 1012.03 1012.25 1012.01 1010.85 1009.65 1008.80 1008.80 1009.11 1008.50 1008.77 1008.48 1007.64 1006.51 1004.92 1003.85 1003.90 1003.20 1003.46 1003.47 1003.03 1002.53 1002.91 1003.17 1003.37 1003.94 1005.00 1005.19 1004.54 1003.80 1003.40 1003.03 1002.72 1002.57 1002.31 1001.98 1001.68 1001.30 1001.21 1001.13 1001.14 1000.78 1000.55 1000.59 1000.82
1019.04 1018.38 1017.52 1016.66 1015.91 1014.90 1014.09 1013.60 1013.13 1012.77 1011.91 1011.12 1011.42 1010.17 1009.71 1009.66 1009.38 1008.34 1007.15 1007.87 1007.13 1006.07 1004.36 1003.44 1003.26 1003.53 1003.25 1003.05 1003.09 1003.05 1003.00 1003.05 1003.37 1003.87 1005.02 1005.70 1005.42 1005.13 1004.59 1004.10 1003.87 1003.65 1003.36 1002.82 1002.33 1001.40 1001.25 1000.98 1000.88 1000.70 1000.87 1000.85 1000.87 1001.46
1018.43 1017.62 1016.88 1016.07 1015.17 1014.27 1013.73 1013.18 1012.71 1012.32 1011.97 1011.02 1010.43 1009.88 1009.36 1009.05 1008.70 1007.28 1005.66 1005.35 1005.80 1004.25 1002.73 1002.31 1003.30 1003.34 1003.40 1003.24 1003.39 1002.92 1002.83 1003.09 1004.05 1005.01 1006.03 1006.32 1005.79 1005.25 1005.24 1005.07 1004.23 1003.81 1003.03 1002.92 1002.90 1002.27 1001.82 1001.47 1001.78 1001.79 1001.79 1001.72 1001.84 1001.99
1017.89 1016.94 1016.10 1015.22 1014.41 1013.66 1013.00 1012.44 1012.12 1012.07 1011.48 1010.54 1010.08 1010.07 1008.87 1008.10 1006.84 1005.30 1004.33 1004.10 1003.23 1002.00 1001.36 1001.36 1001.97 1002.55 1003.48 1003.62 1004.05 1004.05 1004.50 1005.45 1006.07 1006.20 1006.13 1006.00 1005.63 1005.38 1004.96 1004.41 1004.01 1003.87 1003.35 1002.83 1002.51 1002.58 1002.66 1002.41 1002.41 1002.56 1002.32 1002.40 1002.28 1002.38
1017.38 1016.18 1015.17 1014.59 1013.79 1013.00 1012.33 1011.62 1011.23 1011.23 1010.43 1010.10 1009.58 1009.11 1008.76 1008.31 1006.99 1005.47 1004.06 1003.09 1002.05 1001.51 1000.77 1001.50 1002.66 1003.81 1005.12 1005.99 1006.24 1006.73 1006.81 1007.38 1007.38 1006.99 1006.50 1006.21 1005.94 1005.60 1005.24 1004.46 1004.03 1003.76 1003.62 1003.69 1003.78 1003.65 1003.52 1003.15 1003.05 1003.18 1003.21 1003.36 1003.23 1003.29
1017.05 1016.19 1014.59 1014.31 1013.79 1012.64 1011.51 1011.49 1010.30 1009.85 1009.71 1010.15 1009.74 1009.05 1008.93 1009.08 1007.95 1006.33 1004.64 1003.72 1002.91 1002.45 1002.56 1002.95 1004.42 1005.98 1007.07 1007.57 1007.91 1008.13 1008.24 1007.90 1007.59 1007.22 1006.91 1006.72 1006.63 1006.45 1006.16 1005.55 1004.64 1005.23 1004.89 1004.71 1004.44 1004.65 1004.48 1003.97 1003.67 1003.76 1003.98 1004.00 1003.83 1003.80
1016.54 1015.10 1014.74 1014.54 1014.34 1012.94 1011.42 1011.05 1010.40 1010.02 1010.06 1010.33 1010.08 1009.25 1009.06 1008.96 1008.29 1006.83 1005.74 1005.09 1004.33 1004.25 1004.24 1004.78 1005.82 1007.05 1007.89 1008.10 1008.04 1008.22 1008.21 1008.17 1008.05 1007.85 1007.12 1006.59 1006.53 1006.31 1006.22 1006.00 1005.79 1005.97 1005.91 1005.93 1005.48 1005.22 1004.91 1004.77 1004.79 1004.96 1004.72 1004.60 1004.61 1004.52
1016.47 1015.67 1014.87 1014.54 1014.97 1014.47 1012.13 1010.94 1010.84 1010.56 1010.60 1010.87 1010.68 1010.10 1009.69 1009.66 1008.98 1008.21 1007.33 1006.87 1006.48 1006.10 1005.90 1006.37 1007.72 1008.91 1009.22 1009.16 1009.01 1008.82 1008.89 1008.70 1008.43 1008.00 1007.46 1007.05 1007.10 1006.92 1006.34 1006.26 1006.12 1006.22 1006.32 1006.33 1006.12 1006.08 1006.05 1005.91 1005.82 1005.70 1005.56 1005.49 1005.47 1005.46
1015.70 1015.01 1014.39 1013.79 1014.31 1013.49 1011.79 1011.29 1010.79 1010.74 1011.02 1011.42 1010.98 1010.87 1010.71 1010.47 1009.93 1009.36 1009.04 1008.73 1008.21 1007.95 1008.32 1009.40 1010.32 1010.77 1010.56 1010.25 1009.75 1009.46 1009.12 1008.65 1008.25 1007.93 1007.81 1007.48 1007.41 1007.33 1007.19 1006.81 1006.74 1006.62 1006.63 1006.51 1006.57 1006.57 1006.63 1006.67 1006.62 1006.53 1006.61 1006.68 1006.38 1006.30
1014.94 1014.47 1013.68 1013.39 1013.43 1012.79 1012.50 1012.12 1011.43 1011.65 1011.72 1011.63 1011.37 1011.42 1011.47 1011.12 1010.67 1010.48 1010.31 1010.38 1009.93 1010.25 1010.77 1011.04 1011.04 1011.06 1010.77 1010.60 1010.25 1009.76 1009.39 1009.06 1008.75 1008.50 1008.27 1008.04 1007.77 1007.44 1007.44 1007.34 1007.41 1007.23 1007.17 1007.15 1007.30 1007.55 1007.51 1007.69 1007.70 1007.51 1007.30 1007.15 1007.06 1006.97
1014.83 1014.62 1014.13 1012.80 1012.68 1012.48 1012.27 1011.88 1011.70 1011.62 1011.68 1011.37 1011.34 1011.58 1011.96 1011.77 1011.70 1011.56 1011.60 1011.23 1011.48 1011.86 1011.72 1011.65 1011.45 1011.29 1011.24 1011.13 1010.88 1010.43 1009.90 1009.19 1009.16 1008.99 1008.61 1008.40 1008.53 1008.28 1007.80 1007.68 1007.92 1008.16 1008.39 1008.54 1008.55 1008.73 1008.86 1008.86 1008.89 1008.59 1008.16 1007.92 1007.82 1007.93
1014.97 1015.01 1014.01 1012.84 1012.68 1012.75 1012.14 1011.48 1011.28 1011.02 1010.99 1011.08 1011.39 1011.81 1012.37 1012.54 1012.69 1012.23 1012.41 1012.65 1012.56 1012.14 1012.01 1011.94 1011.69 1011.57 1011.52 1011.31 1011.07 1010.83 1010.51 1010.07 1009.93 1009.69 1009.50 1009.17 1009.32 1009.26 1009.55 1009.84 1009.89 1009.95 1009.95 1010.08 1009.94 1009.90 1010.03 1010.00 1009.91 1009.64 1009.21 1008.86 1008.76 1008.61
1015.26 1014.59 1013.63 1013.06 1012.54 1012.16 1011.15 1010.92 1010.61 1010.39 1010.16 1010.36 1011.20 1012.01 1012.78 1013.14 1012.98 1013.26 1013.96 1013.93 1013.62 1013.11 1012.87 1012.74 1012.44 1012.22 1011.88 1011.57 1011.59 1011.52 1011.27 1010.87 1010.65 1010.37 1010.22 1010.19 1010.31 1010.58 1010.90 1011.33 1011.49 1011.61 1011.49 1011.41 1011.35 1011.31 1011.27 1011.21 1011.01 1010.84 1010.52 1010.22 1009.84 1009.82
1015.48 1014.90 1014.08 1013.25 1012.14 1011.57 1010.87 1010.41 1010.18 1010.13 1010.05 1009.91 1010.67 1012.21 1013.38 1013.77 1013.85 1014.08 1014.68 1014.97 1014.84 1014.30 1013.95 1013.71 1013.40 1012.86 1012.43 1012.10 1011.89 1011.88 1011.78 1011.81 1011.76 1011.46 1011.11 1011.14 1011.41 1011.50 1011.81 1012.28 1012.78 1012.98 1012.65 1012.57 1012.63 1012.53 1012.46 1012.45 1012.34 1012.12 1011.67 1011.41 1011.33 1010.92
1015.32 1014.22 1014.23 1013.75 1013.01 1012.13 1011.34 1010.82 1010.21 1010.03 1010.14 1010.30 1011.13 1012.55 1013.24 1013.82 1014.19 1015.13 1015.73 1015.87 1015.45 1014.89 1014.55 1014.23 1013.67 1013.09 1012.66 1012.62 1012.50 1012.50 1012.76 1012.72 1012.76 1012.61 1012.26 1012.31 1012.53 1012.84 1013.05 1013.34 1013.78 1013.94 1013.61 1013.62 1013.64 1013.53 1013.61 1013.58 1013.27 1012.80 1012.37 1012.13 1011.96 1011.84
1016.43 1015.81 1014.79 1014.46 1013.82 1013.15 1011.54 1010.95 1010.42 1010.33 1010.43 1010.78 1011.24 1012.00 1012.93 1014.42 1015.46 1016.00 1015.96 1015.89 1015.47 1014.90 1014.46 1013.96 1013.58 1013.30 1013.13 1013.16 1013.14 1013.31 1013.64 1013.81 1014.07 1014.10 1013.44 1013.65 1013.89 1014.07 1014.22 1014.36 1014.60 1014.76 1014.37 1014.38 1014.36 1014.42 1014.37 1014.06 1013.79 1013.42 1013.19 1012.95 1013.00 1012.97
1015.03 1014.92 1014.35 1013.68 1013.09 1011.99 1011.49 1011.29 1011.12 1011.42 1011.78 1011.77 1011.75 1012.89 1014.17 1015.32 1016.14 1016.07 1016.00 1015.67 1015.07 1014.65 1014.27 1013.77 1013.58 1013.65 1013.71 1013.81 1013.97 1014.18 1014.57 1014.92 1015.12 1015.07 1014.75 1014.59 1014.90 1015.12 1015.13 1015.01 1015.02 1014.88 1015.02 1014.93 1014.77 1014.73 1014.54 1014.36 1014.19 1013.99 1013.87 1013.78 1013.74 1013.77
1012.81 1012.46 1012.97 1012.59 1011.99 1011.66 1011.66 1011.92 1012.41 1012.82 1013.05 1012.67 1013.16 1014.40 1015.40 1016.03 1016.06 1015.52 1015.52 1015.13 1014.68 1014.35 1014.21 1014.03 1014.09 1014.16 1014.41 1014.54 1014.69 1015.06 1015.60 1016.08 1016.38 1016.45 1016.24 1016.00 1015.83 1015.89 1015.79 1015.67 1015.48 1015.33 1015.16 1014.90 1015.03 1014.89 1014.70 1014.50 1014.45 1014.48 1014.29 1014.25 1014.25 1014.24
1010.14 1010.08 1010.55 1010.92 1011.19 1011.35 1011.87 1011.99 1012.74 1013.08 1013.51 1013.85 1014.48 1015.18 1015.59 1015.79 1015.61 1015.40 1015.12 1015.00 1014.88 1014.78 1014.83 1014.75 1014.59 1014.76 1015.18 1015.39 1015.57 1015.97 1016.69 1017.27 1017.66 1017.96 1017.64 1017.23 1016.92 1016.76 1016.58 1016.36 1016.10 1015.82 1015.64 1015.30 1014.89 1014.84 1014.94 1014.83 1014.82 1014.77 1014.78 1014.72 1014.65 1014.52
1008.78 1008.97 1009.34 1009.98 1010.29 1010.52 1011.07 1011.88 1012.49 1012.87 1013.23 1013.56 1013.80 1014.27 1014.83 1015.23 1015.46 1015.42 1015.30 1015.20 1015.22 1015.36 1015.56 1015.47 1015.28 1015.46 1015.81 1016.16 1016.41 1016.68 1017.14 1017.92 1018.39 1018.48 1018.40 1018.01 1017.79 1017.66 1017.42 1017.04 1016.78 1016.53 1016.25 1015.90 1015.61 1015.57 1015.63 1015.53 1015.41 1015.37 1015.14 1015.01 1014.90 1014.80
1008.48 1008.79 1008.95 1008.97 1009.67 1010.22 1010.77 1011.23 1011.75 1011.98 1012.45 1012.90 1013.39 1014.11 1014.59 1015.07 1015.26 1015.31 1015.45 1015.47 1015.59 1015.86 1016.27 1016.23 1016.07 1016.19 1016.51 1016.72 1017.06 1017.18 1017.61 1018.34 1018.76 1018.91 1018.92 1018.75 1018.65 1018.48 1018.17 1017.87 1017.62 1017.25 1016.84 1016.29 1016.11 1016.10 1016.08 1015.89 1015.71 1015.66 1015.58 1015.51 1015.39 1015.26
1008.45 1008.44 1008.65 1008.81 1009.22 1009.68 1010.13 1010.48 1011.01 1011.38 1011.80 1012.59 1013.04 1013.58 1014.07 1014.40 1014.81 1015.04 1015.52 1015.82 1016.19 1016.51 1016.79 1016.82 1016.74 1016.94 1017.21 1017.40 1017.67 1017.64 1017.98 1018.48 1018.95 1019.26 1019.28 1019.02 1018.90 1018.84 1018.68 1018.51 1018.29 1017.83 1017.31 1016.69 1016.41 1016.27 1016.32 1016.29 1016.25 1016.16 1016.09 1015.96 1015.80 1015.53
Thickness
5462 5455 5448 5441 5433 5426 5420 5417 5414 5410 5407 5406 5406 5405 5404 5405 5404 5405 5408 5407 5401 5402 5421 5424 5436 5442 5446 5450 5444 5456 5457 5465 5475 5503 5525 5527 5541 5557 5573 5604 5602 5596 5606 5663 5693 5705 5706 5755 5767 5760 5756 5776 5785 5791
5461 5454 5447 5440 5431 5423 5419 5415 5413 5410 5408 5407 5406 5404 5404 5403 5403 5403 5404 5408 5407 5408 5423 5429 5437 5442 5445 5453 5458 5448 5454 5449 5452 5486 5517 5528 5544 5550 5562 5575 5614 5599 5626 5635 5658 5686 5720 5742 5743 5753 5753 5756 5761 5769
5460 5453 5447 5440 5433 5426 5422 5419 5415 5412 5410 5408 5407 5406 5405 5405 5405 5404 5406 5408 5408 5411 5428 5441 5452 5463 5464 5462 5465 5464 5471 5466 5466 5482 5493 5512 5527 5550 5557 5575 5591 5623 5634 5644 5658 5701 5706 5708 5735 5738 5753 5747 5748 5758
5462 5455 5450 5444 5437 5430 5427 5423 5419 5417 5414 5412 5411 5411 5411 5410 5410 5410 5411 5413 5409 5410 5417 5448 5463 5469 5475 5480 5482 5480 5480 5482 5476 5477 5487 5501 5517 5538 5552 5564 5581 5602 5617 5630 5650 5682 5686 5687 5697 5714 5729 5735 5735 5744
5464 5458 5453 5447 5441 5437 5433 5430 5427 5424 5422 5421 5422 5422 5421 5418 5417 5418 5423 5425 5421 5413 5423 5444 5463 5490 5495 5495 5502 5503 5493 5491 5491 5488 5501 5511 5522 5533 5552 5562 5578 5596 5612 5621 5635 5637 5654 5670 5687 5702 5711 5711 5724 5737
5469 5463 5457 5451 5446 5444 5442 5439 5435 5433 5433 5433 5434 5434 5430 5427 5426 5428 5430 5432 5430 5426 5423 5444 5484 5497 5509 5516 5518 5511 5506 5500 5504 5503 5505 5514 5520 5530 5549 5568 5592 5601 5612 5627 5634 5640 5657 5677 5684 5693 5696 5701 5709 5719
5474 5469 5464 5459 5455 5453 5451 5448 5447 5448 5449 5447 5446 5446 5442 5440 5436 5436 5440 5442 5439 5434 5435 5451 5471 5492 5506 5518 5522 5517 5513 5511 5511 5510 5513 5518 5525 5535 5562 5572 5590 5603 5613 5627 5636 5649 5647 5649 5653 5667 5673 5684 5698 5703
5479 5477 5473 5469 5467 5467 5466 5463 5464 5464 5464 5462 5459 5460 5457 5453 5450 5449 5457 5456 5450 5444 5443 5449 5472 5490 5495 5508 5520 5526 5523 5520 5514 5512 5514 5516 5529 5543 5557 5570 5580 5590 5606 5617 5620 5625 5627 5624 5646 5649 5659 5668 5677 5683
5484 5483 5481 5479 5478 5478 5480 5478 5478 5477 5479 5478 5476 5476 5469 5466 5471 5471 5465 5461 5459 5452 5453 5458 5470 5480 5490 5499 5507 5506 5518 5510 5510 5512 5516 5522 5540 5549 5557 5567 5581 5592 5599 5605 5604 5605 5612 5613 5624 5624 5636 5646 5657 5660
5488 5487 5488 5488 5488 5488 5489 5490 5490 5488 5492 5497 5493 5495 5492 5488 5485 5475 5470 5468 5464 5461 5457 5468 5490 5491 5500 5507 5511 5517 5523 5517 5519 5522 5536 5535 5541 5547 5560 5568 5574 5581 5590 5597 5601 5604 5607 5617 5613 5618 5623 5632 5651 5650
5493 5492 5492 5494 5494 5496 5499 5498 5499 5499 5505 5510 5509 5508 5503 5499 5492 5484 5484 5480 5482 5478 5482 5501 5512 5515 5519 5519 5527 5533 5537 5536 5540 5544 5545 5540 5538 5548 5558 5566 5572 5576 5584 5588 5597 5601 5602 5606 5613 5615 5620 5627 5636 5638
5499 5498 5498 5499 5500 5501 5504 5504 5504 5505 5507 5500 5496 5502 5505 5508 5499 5488 5490 5488 5488 5495 5503 5519 5531 5529 5535 5527 5533 5538 5547 5547 5549 5550 5544 5531 5536 5545 5556 5565 5570 5577 5582 5586 5592 5598 5607 5611 5616 5619 5626 5633 5637 5637
5505 5504 5504 5505 5505 5508 5509 5508 5508 5506 5509 5513 5509 5520 5510 5504 5494 5498 5502 5496 5506 5522 5535 5539 5539 5531 5538 5539 5541 5541 5541 5552 5553 5548 5534 5534 5541 5545 5552 5560 5565 5572 5577 5584 5590 5602 5607 5615 5619 5625 5624 5627 5629 5624
5510 5511 5511 5512 5513 5514 5514 5512 5511 5512 5512 5518 5521 5506 5518 5512 5506 5513 5530 5522 5525 5539 5549 5547 5537 5541 5539 5545 5543 5554 5561 5561 5554 5546 5537 5538 5545 5550 5550 5555 5565 5570 5580 5584 5586 5595 5599 5607 5608 5611 5614 5618 5618 5616
5514 5517 5519 5519 5521 5523 5522 5520 5518 5514 5517 5522 5524 5495 5527 5538 5545 5553 5558 5548 5550 5563 5567 5566 5562 5560 5552 5556 5553 5557 5552 5541 5541 5547 5549 5550 5552 5556 5561 5566 5571 5572 5578 5586 5594 5594 5593 5598 5599 5600 5604 5605 5607 5607
5519 5524 5526 5527 5529 5531 5531 5529 5525 5522 5526 5526 5532 5533 5540 5536 5546 5558 5563 5567 5577 5578 5582 5572 5560 5552 5545 5538 5538 5534 5540 5532 5537 5545 5551 5553 5556 5558 5561 5570 5574 5576 5581 5579 5578 5580 5584 5589 5592 5592 5595 5596 5598 5598
5525 5525 5534 5532 5533 5538 5541 5536 5543 5538 5534 5528 5532 5544 5535 5534 5540 5554 5567 5570 5579 5577 5568 5567 5549 5540 5536 5526 5525 5532 5534 5540 5546 5549 5551 5554 5554 5555 5558 5563 5569 5565 5570 5572 5574 5572 5574 5580 5584 5584 5583 5584 5588 5589
5532 5537 5536 5534 5533 5540 5548 5547 5545 5540 5534 5530 5531 5542 5545 5540 5543 5558 5566 5568 5572 5568 5568 5560 5556 5543 5536 5540 5544 5543 5543 5543 5545 5547 5553 5557 5560 5562 5562 5562 5564 5562 5564 5563 5565 5568 5574 5573 5573 5571 5573 5576 5578 5580
5537 5539 5542 5540 5533 5532 5548 5552 5549 5539 5538 5536 5536 5542 5544 5540 5545 5550 5558 5560 5562 5565 5566 5560 5545 5533 5535 5538 5542 5544 5541 5542 5544 5548 5553 5557 5554 5556 5561 5562 5564 5562 5561 5562 5564 5564 5562 5562 5563 5564 5567 5567 5565 5565
5548 5549 5550 5551 5544 5550 5558 5553 5557 5548 5541 5535 5539 5538 5539 5539 5544 5549 5550 5551 5554 5555 5549 5536 5528 5525 5528 5532 5537 5540 5543 5547 5548 5548 5548 5553 5555 5555 5554 5557 5557 5557 5557 5558 5558 5557 5556 5553 5553 5553 5553 5551 5553 5555
5556 5558 5559 5558 5558 5560 5556 5552 5553 5547 5545 5542 5545 5543 5538 5544 5546 5544 5544 5543 5544 5538 5530 5528 5530 5532 5534 5535 5537 5540 5543 5544 5544 5545 5545 5546 5548 5551 5551 5552 5550 5552 5550 5549 5547 5545 5545 5541 5539 5541 5542 5541 5539 5539
5561 5558 5559 5570 5567 5566 5561 5562 5557 5557 5552 5551 5552 5550 5540 5540 5540 5540 5540 5540 5534 5528 5529 5529 5530 5534 5532 5530 5532 5535 5538 5543 5543 5541 5543 5543 5540 5540 5545 5545 5542 5536 5533 5530 5529 5527 5526 5526 5522 5523 5525 5526 5524 5523
5562 5558 5566 5573 5567 5552 5554 5570 5562 5564 5556 5557 5557 5550 5542 5540 5537 5543 5535 5532 5531 5535 5535 5533 5533 5532 5530 5530 5530 5530 5530 5532 5531 5532 5532 5534 5529 5529 5526 5521 5518 5516 5514 5512 5512 5510 5508 5506 5506 5506 5508 5511 5511 5510
5564 5567 5569 5570 5571 5560 5579 5572 5574 5571 5573 5568 5558 5550 5545 5541 5543 5535 5522 5523 5527 5530 5530 5528 5529 5527 5527 5526 5523 5520 5520 5522 5523 5523 5521 5520 5518 5515 5510 5503 5498 5495 5495 5494 5492 5489 5488 5487 5484 5483 5486 5489 5489 5485
5561 5561 5564 5550 5578 5578 5578 5577 5577 5576 5571 5576 5567 5551 5537 5532 5530 5528 5519 5513 5510 5513 5515 5515 5514 5516 5516 5517 5517 5515 5513 5508 5504 5506 5510 5506 5499 5496 5493 5487 5476 5469 5472 5471 5468 5466 5466 5462 5460 5458 5460 5462 5460 5461
5550 5574 5562 5569 5565 5567 5572 5570 5576 5576 5574 5570 5561 5545 5542 5536 5534 5517 5508 5503 5504 5505 5505 5503 5505 5507 5508 5505 5502 5499 5496 5493 5486 5484 5485 5484 5480 5474 5465 5457 5450 5444 5449 5446 5442 5442 5439 5437 5437 5439 5440 5439 5437 5437
5547 5549 5562 5561 5560 5563 5578 5578 5583 5579 5573 5567 5565 5559 5550 5526 5514 5509 5507 5503 5502 5504 5504 5504 5502 5499 5496 5491 5487 5484 5478 5471 5462 5460 5463 5457 5451 5446 5438 5434 5430 5423 5425 5422 5420 5418 5416 5417 5417 5418 5417 5416 5413 5409
5563 5559 5562 5570 5573 5583 5577 5576 5574 5567 5562 5565 5565 5548 5533 5520 5509 5509 5504 5503 5503 5501 5499 5498 5495 5488 5481 5475 5470 5466 5461 5453 5446 5443 5442 5439 5432 5427 5422 5418 5414 5410 5407 5404 5403 5400 5401 5400 5399 5397 5396 5393 5390 5387
5579 5584 5575 5573 5583 5582 5579 5571 5563 5559 5556 5558 5549 5535 5524 5515 5512 5512 5507 5505 5504 5501 5495 5491 5485 5479 5471 5464 5458 5452 5447 5436 5429 5424 5420 5418 5416 5411 5408 5405 5403 5400 5398 5398 5393 5392 5391 5390 5387 5384 5382 5379 5375 5372
5604 5609 5598 5594 5586 5579 5576 5577 5564 5562 5556 5550 5540 5531 5525 5519 5517 5513 5508 5502 5497 5492 5487 5481 5477 5469 5460 5453 5446 5439 5430 5420 5413 5406 5404 5403 5403 5401 5398 5395 5393 5392 5389 5388 5389 5387 5382 5380 5377 5373 5370 5367 5364 5361
5622 5616 5607 5599 5592 5592 5587 5579 5572 5566 5559 5551 5547 5539 5529 5522 5515 5510 5504 5499 5493 5486 5477 5472 5469 5462 5453 5444 5436 5429 5422 5411 5403 5399 5396 5395 5392 5389 5387 5386 5384 5382 5380 5379 5378 5375 5370 5368 5365 5362 5360 5358 5356 5352
5619 5611 5606 5602 5596 5596 5590 5581 5573 5570 5563 5555 5547 5539 5530 5517 5510 5507 5502 5496 5487 5478 5468 5463 5459 5453 5445 5438 5430 5423 5414 5404 5397 5393 5388 5385 5382 5378 5377 5375 5373 5372 5371 5372 5369 5365 5361 5359 5357 5353 5350 5347 5344 5341
5617 5617 5612 5606 5598 5590 5590 5585 5575 5569 5565 5553 5546 5539 5532 5523 5511 5507 5498 5490 5480 5470 5462 5456 5451 5443 5435 5429 5422 5417 5409 5400 5391 5385 5381 5377 5373 5370 5367 5364 5362 5361 5362 5363 5361 5359 5354 5351 5347 5344 5340 5337 5335 5334